Theta_e
300 300 297 296 290 295 289 289 287 290 296 302 313 313 320 323 327 328 333 334 335 337 337 336 337 338 339 344 342 342 342 342
298 299 298 293 296 291 289 284 283 289 291 293 306 311 316 321 325 330 330 334 336 337 337 338 338 340 340 342 344 343 342 341
294 290 290 292 290 289 291 289 285 285 290 306 308 314 314 319 323 328 330 334 337 338 339 339 339 340 341 340 342 344 344 341
288 295 297 294 290 288 285 287 289 288 291 309 313 316 317 321 324 327 332 335 337 340 339 336 336 339 341 343 341 343 345 344
283 287 291 290 293 289 289 287 287 289 291 312 314 315 317 319 325 328 329 330 330 334 336 336 335 334 339 343 344 343 345 344
278 283 287 287 291 293 287 283 285 287 291 305 311 312 315 317 320 321 324 325 326 329 333 333 336 336 337 340 345 345 345 343
286 290 291 290 291 292 289 288 284 289 292 305 309 310 313 317 318 319 319 320 322 324 334 334 337 341 342 340 344 346 344 344
284 290 290 288 290 292 292 294 296 295 298 307 311 312 312 314 317 317 317 319 321 324 325 329 334 339 339 343 344 347 346 345
279 287 286 281 288 292 294 299 299 296 299 302 309 308 308 310 314 316 317 318 318 321 324 327 329 337 338 336 337 337 345 348
279 281 276 284 293 299 297 298 299 299 300 301 304 306 306 309 310 312 317 316 317 318 323 327 329 328 336 341 339 338 340 343
279 278 283 288 294 294 291 294 299 296 300 301 302 305 303 308 311 311 315 318 316 319 321 323 326 327 329 335 339 339 340 337
280 278 278 286 295 299 298 288 299 300 299 299 300 293 297 305 309 311 313 317 315 317 319 320 324 324 324 324 327 328 329 332
280 279 285 292 296 299 284 286 298 299 297 297 294 298 299 305 305 309 312 315 316 314 315 318 323 320 316 320 320 324 327 331
279 278 279 293 294 288 293 296 297 298 298 296 298 300 301 302 304 307 309 313 315 314 314 316 320 320 316 314 319 322 325 329
282 282 291 292 291 293 293 292 293 294 296 297 296 298 300 300 302 304 307 311 313 314 313 316 319 318 314 315 317 319 323 326
284 287 290 291 293 293 293 292 294 295 296 297 297 297 297 299 301 303 306 309 312 311 313 314 316 318 314 314 316 318 320 324
284 288 288 292 291 293 295 294 294 295 296 295 295 295 296 297 299 301 303 307 312 311 311 314 314 314 314 313 313 315 318 322
281 287 286 287 291 294 293 293 295 293 294 295 295 294 296 296 298 299 300 305 309 310 313 314 313 312 311 311 311 312 316 319
288 291 291 292 294 296 294 295 297 296 296 295 296 297 298 299 300 300 302 304 309 314 313 311 310 308 309 309 310 311 313 317
Wind_Speed
6 7 2 9 2 8 7 1 5 4 9 10 17 15 11 23 20 24 17 17 22 22 20 20 21 23 22 19 18 18 18 14
8 7 8 8 7 3 3 5 3 5 5 4 16 20 21 12 22 24 15 15 17 17 16 14 17 20 21 22 22 20 18 15
5 7 5 9 10 8 1 5 7 2 3 6 11 15 20 20 22 19 19 20 22 15 12 15 12 15 17 16 18 18 18 17
6 5 3 6 8 6 5 8 3 3 1 4 12 21 24 20 4 7 12 13 17 16 9 8 10 17 19 18 17 16 18 17
11 9 9 6 12 7 4 2 2 2 3 7 15 21 24 28 23 17 16 14 13 10 2 3 6 5 7 15 18 15 14 16
4 6 5 10 13 10 3 2 7 3 12 9 14 17 19 20 21 21 20 17 15 12 7 5 3 3 4 2 14 15 14 16
0 6 5 10 12 10 6 6 1 10 14 6 7 12 14 15 15 17 16 17 16 18 11 6 4 5 7 6 7 13 16 16
4 4 8 8 8 6 6 8 7 7 2 7 3 8 16 15 15 15 15 16 15 14 14 15 16 3 2 2 7 15 17 19
3 4 8 6 7 10 5 10 5 7 8 13 6 11 12 12 14 14 13 13 11 11 12 13 13 12 7 6 6 7 4 13
3 4 2 7 5 7 14 13 12 9 13 13 9 3 11 13 11 10 6 6 10 13 14 10 12 14 12 4 1 3 4 3
5 4 5 3 8 7 7 5 13 12 11 11 14 5 6 14 13 10 8 8 5 5 9 11 12 11 10 7 4 2 2 2
3 4 6 1 10 10 5 4 9 14 12 14 10 4 4 9 12 11 9 3 7 8 8 7 8 10 12 13 13 8 8 11
2 4 1 5 11 9 2 3 12 8 8 10 5 4 8 9 9 9 10 6 8 7 10 10 7 9 11 9 7 11 9 12
3 2 6 5 3 1 4 5 6 8 11 13 13 14 13 13 10 8 12 10 5 8 8 10 8 6 8 11 9 11 11 8
7 6 4 0 3 1 3 8 6 8 10 12 13 14 13 12 13 10 8 9 7 4 8 8 7 5 8 10 12 11 11 10
2 3 6 7 4 2 3 8 13 10 11 13 14 11 14 14 11 10 9 6 5 6 5 9 6 5 4 8 10 13 11 11
5 7 2 6 5 6 6 6 11 12 13 14 15 14 13 13 16 10 10 6 5 7 7 7 4 7 6 8 8 11 10 10
7 6 5 7 5 6 6 6 10 13 15 14 15 18 13 14 14 15 10 8 6 7 8 3 4 8 8 8 9 10 12 9
6 6 7 6 7 7 7 8 10 12 14 17 16 15 16 15 14 18 14 12 10 9 6 1 2 5 6 10 10 10 10 9
Wind_Direction
30 332 17 322 55 196 122 113 66 262 304 323 28 7 284 214 203 211 213 196 205 195 189 183 182 184 184 182 186 187 190 191
314 28 33 101 278 314 15 177 197 296 320 293 10 351 338 256 204 201 190 194 189 188 196 187 189 188 188 185 185 186 191 193
23 45 322 353 20 343 153 126 157 151 297 58 32 16 345 312 217 187 178 176 177 181 199 198 166 183 194 200 196 187 188 192
261 290 354 100 73 42 47 313 24 139 89 344 39 29 9 347 69 195 182 148 152 144 142 210 186 182 183 189 199 205 192 188
348 357 15 25 20 6 255 266 55 99 262 37 55 46 24 28 39 48 47 32 20 3 320 170 238 143 145 191 191 198 203 195
166 235 270 320 340 0 49 15 329 260 333 6 49 64 59 37 30 40 36 27 19 360 316 46 319 315 250 54 193 190 200 204
229 300 315 317 325 342 345 311 351 304 325 58 57 74 66 75 51 40 42 35 17 12 5 9 356 275 259 193 189 196 200 202
355 340 339 325 311 307 329 4 335 324 165 349 338 79 64 60 63 44 30 26 17 11 359 1 339 3 27 337 214 195 195 207
297 330 334 23 27 3 52 43 345 41 6 345 31 43 45 46 52 44 27 19 358 2 352 18 349 348 7 18 45 60 188 216
192 14 310 243 2 60 73 46 34 14 10 6 6 64 55 38 40 40 31 346 12 359 355 1 355 4 338 257 185 51 14 302
145 196 286 3 22 354 72 2 3 347 347 6 339 245 21 21 24 22 2 332 338 357 352 350 359 349 346 350 221 261 321 309
141 166 233 10 314 325 262 229 3 354 4 359 2 37 310 349 1 358 353 295 338 3 358 354 4 348 333 350 20 20 323 300
249 234 228 317 319 300 167 250 322 328 339 343 343 308 297 323 340 335 334 4 7 314 359 355 3 16 342 328 348 316 304 297
7 277 257 335 21 66 316 296 323 334 330 322 319 318 319 321 328 329 330 344 11 340 344 343 358 355 338 330 333 318 306 306
172 219 131 243 158 245 304 300 301 305 299 292 297 297 313 317 319 314 315 318 322 341 329 340 328 347 345 319 323 316 295 279
40 212 177 176 188 204 295 298 300 289 286 290 288 294 299 298 299 308 303 287 301 318 344 306 314 320 303 314 328 314 313 306
251 281 292 176 178 202 265 266 296 301 293 291 289 279 273 278 291 288 294 286 291 308 292 277 326 311 320 326 331 314 313 320
227 209 187 225 231 229 242 274 308 304 300 287 281 282 277 272 273 280 277 282 272 263 276 296 354 316 321 332 325 319 326 336
224 196 215 247 251 252 252 264 300 300 292 296 287 276 271 265 251 262 264 256 234 231 195 208 291 312 326 331 319 313 320 319